Location: Champs
(48.8539°N, 2.6040°E)
Time: 05:39:35
(UTC+00:00)

Cosmos 1300 - Pass Details

Date: 26 October 2021
Orbit: 509 x 512 km, 82.5° (Epoch: 04 December)

Event Time Altitude Azimuth Distance (km) Brightness Sun altitude
Rises 05:02:38 0° 345° (NNW) 2,635 6.1 -14.5°
Reaches altitude 10° 05:04:49 10° 340° (NNW) 1,743 5.1 -14.1°
Maximum altitude 05:08:30 49° 265° (W) 669 2.8 -13.5°
Drops below altitude 10° 05:12:10 10° 191° (S) 1,726 5.3 -12.9°
Sets 05:14:19 0° 185° (S) 2,606 6.3 -12.5°
